TV
NORAD ID: 32404
Int'l Code: 2008-001A
Perigee: 35,774.0 km
Apogee: 35,814.4 km
Inclination: 5.3°
Period: 1,436.1 min
Semi major axis: 42,165.2 km
Launch date: January 15, 2008
Source: United Arab Emirates (UAE)
Comments: Sea Launch's Zenit-3SL rocket resumes operations with this flight, carrying the Boeing-built Thuraya-3 mobile communications satellite into geosynchronous transfer orbit. Once operational, this satellite will expand Thuraya's network coverage to include all key markets of the Asia Pacific region.
Two Line Element Set (TLE):
1 32404U 08001A 10249.79834718 -.00000318 00000-0 10000-3 0 4975
2 32404 005.2588 333.9008 0004789 187.5821 210.3217 01.00270110 9758
More details about THURAYA 3